Rbgn^[z[y[W
メイン
   新天体発見情報
     Comet C/2018 L2 (ATLAS)
投稿するにはまず登録を

スレッド表示 | 新しいものから 前のトピック | 次のトピック | 下へ
投稿者 スレッド
佐藤裕久
投稿日時: 2018-6-18 19:04
モデレータ
登録日: 2005-6-12
居住地: 日本
投稿: 2505
オンライン
Comet C/2018 L2 (ATLAS)

6月6日、ハワイ Mauna Loaにある小惑星地球衝突最終警報システム Asteroid Terrestrial-impact 
Last Alert System (ATLAS)調査プログラムのコースに0.5-m f/2 Schmidt反射望遠鏡で得た8枚のCCD
o-バンド画像から他の彗星が発見された。
H. Weilandは、この彗星は、発見時の露出で、恒星の輪郭より大きい8".75の大きさと注記して
いる。
小惑星センターのNEOCPとPCCP webpageに公表後、 L. S. Amaral (Rio de Janeiro, ブラジル,
0.31-m f/2.9 反射望遠鏡 (測定は P. R. Holvorcem);6月4.1日UT、拡散した8"のコマが見え、r光度
は15.3-15.8等)らCCD観測者によって彗星状と観測された。

発見位置は次のとおり、

     2018 UT             R.A. (2000) Decl.       Mag.
     June  6.33235   13 55 17.30   -42 18 14.0   15.6
           6.33604   13 55 17.11   -42 18 08.0   15.6
           6.34020   13 55 16.90   -42 18 00.9   15.6
           6.34392   13 55 16.73   -42 17 54.9   15.7
           6.34805   13 55 16.51   -42 17 47.8   15.6
           6.35176   13 55 16.31   -42 17 41.3   16.3
           6.35592   13 55 16.13   -42 17 34.5   15.6
           6.35961   13 55 15.98   -42 17 28.3   15.7

暫定放物線軌道要素と位置推算表は次のとおり、

Orbital elements:
    C/2018 L2 (ATLAS)
T 2018 Dec. 2.39688 TT                                  MPCW
q   1.7177566            (2000.0)            P               Q
                   Peri.   55.98493     +0.02581876     +0.56687526
                   Node   242.90713     -0.89357649     +0.38235424
e   1.0            Incl.   67.65137     +0.44816787     +0.72969698
From 50 observations 2018 June 4-8.

Ephemeris:
    C/2018 L2 (ATLAS)
Date    TT    R. A. (2000) Decl.     Delta      r     Elong.  Phase   m1
2018 05 10    14 28 34.1 -52 56 42   2.1885  3.0617   143.8    11.2  16.6
...
2018 05 25    14 07 34.1 -47 42 29   2.0427  2.9240   144.1    11.7  16.2
...
2018 06 02    13 58 59.6 -44 17 01   1.9946  2.8511   140.5    13.1  16.0
...
2018 06 08    13 54 02.8 -41 31 26   1.9721  2.7968   136.5    14.5  15.9
2018 06 09    13 53 21.1 -41 03 11   1.9695  2.7877   135.7    14.7  15.9
2018 06 10    13 52 41.5 -40 34 47   1.9672  2.7787   134.9    15.0  15.9
...
2018 06 16    13 49 31.1 -37 42 33   1.9598  2.7248   129.9    16.6  15.8
...
2018 06 24    13 47 18.2 -33 52 43   1.9657  2.6535   122.4    18.9  15.7
...
2018 07 09    13 48 45.0 -27 04 24   2.0174  2.5220   107.8    22.6  15.5

(CBET 4522、MPEC 2018-L37)

スレッド表示 | 新しいものから 前のトピック | 次のトピック | トップ

投稿するにはまず登録を
 
© 1999 Tsutomu Seki.